Lanai City, HI

11:53 AM HST on January 17, 2017 (GMT -1000)
Lanai City

Weather History for PHNY - August, 2014

Change the Weather History Date:

Wednesday, August 20, 2014

  Actual Average Record
Temperature  
Mean Temperature 74 °F -  
Max Temperature 81 °F 82 °F 84 °F (1996)
Min Temperature 68 °F 67 °F 62 °F (1954)
Cooling Degree Days 10    
Growing Degree Days 24 (Base 50)    
Moisture  
Dew Point 67 °F    
Average Humidity 78    
Maximum Humidity 97    
Minimum Humidity 58    
Precipitation  
Precipitation 0.01 in - - ()
Sea Level Pressure  
Sea Level Pressure 29.98 in    
Wind  
Wind Speed 10 mph (NNE)    
Max Wind Speed 16 mph    
Max Gust Speed 24 mph    
Visibility 10 miles    
Events Rain    
Averages and records for this station are not official NWS values.
T = Trace of Precipitation, MM = Missing Value Source: NWS Daily Summary

Daily Weather History Graph

Daily Weather History Graph

Search for Another Location

Airport or City:

Trip Planner

Search our weather history database for the weather conditions in past years. The results will help you decide how hot, cold, wet, or windy it might be!

Date:

Astronomy

Aug. 20, 2014 Rise Set
Actual Time 6:08 AM HST 6:53 PM HST
Civil Twilight 5:45 AM HST 7:16 PM HST
Nautical Twilight 5:18 AM HST 7:43 PM HST
Astronomical Twilight 4:51 AM HST 8:10 PM HST
Moon 2:11 AM HST (8/20) 3:34 PM HST (8/20)
Length of Visible Light 13h 30m
Length of Day
12h 44m
Waning Crescent, 19% of the Moon is Illuminated
Aug 20
Waning Crescent
Aug 25
New
Sep 2
First Quarter
Sep 8
Full
Sep 15
Last Quarter

Hourly Weather History & Observations

Time (HST) Temp. Heat Index Dew Point Humidity Pressure Visibility Wind Dir Wind Speed Gust Speed Precip Events Conditions
12:56 AM 70.0 °F - 65.8 °F 87% 29.96 in 10.0 mi NNE 8.1 mph - N/A   Clear
1:56 AM 70.0 °F - 65.8 °F 87% 29.94 in 10.0 mi NE 10.4 mph - N/A   Clear
2:56 AM 70.0 °F - 65.8 °F 87% 29.94 in 10.0 mi NE 11.5 mph - N/A   Clear
3:56 AM 70.0 °F - 65.8 °F 87% 29.93 in 10.0 mi NE 15.0 mph - N/A   Clear
4:56 AM 70.0 °F - 65.8 °F 87% 29.94 in 10.0 mi NE 10.4 mph 24.2 mph N/A   Clear
5:56 AM 70.9 °F - 66.9 °F 87% 29.95 in 10.0 mi NE 13.8 mph - N/A   Clear
6:56 AM 72.0 °F - 65.8 °F 81% 29.97 in 10.0 mi NE 12.7 mph - N/A   Clear
7:56 AM 75.9 °F - 65.8 °F 71% 29.98 in 10.0 mi NE 16.1 mph - N/A   Clear
8:56 AM 79.0 °F - 64.9 °F 62% 29.98 in 10.0 mi NE 16.1 mph - N/A   Clear
9:56 AM 79.9 °F - 63.9 °F 58% 29.99 in 10.0 mi NE 15.0 mph - N/A   Mostly Cloudy
10:56 AM 79.9 °F - 64.9 °F 60% 30.00 in 7.0 mi Variable 4.6 mph - N/A   Overcast
11:16 AM 80.6 °F 82.7 °F 66.2 °F 61% 30.06 in 10.0 mi SSW 4.6 mph - N/A   Overcast
11:56 AM 81.0 °F 83.0 °F 65.8 °F 60% 29.99 in 9.0 mi Variable 4.6 mph - N/A   Overcast
12:56 PM 74.8 °F - 70.0 °F 85% 29.99 in 10.0 mi Calm Calm - 0.01 in Rain Light Rain
1:15 PM 75.2 °F - 69.8 °F 83% 30.03 in 10.0 mi WNW 4.6 mph - 0.01 in Rain Light Rain
1:56 PM 78.8 °F - 66.2 °F 65% 30.01 in 10.0 mi NNE 9.2 mph - N/A   Overcast
2:21 PM 78.8 °F - 68.0 °F 69% 30.01 in 10.0 mi WNW 8.1 mph - N/A   Overcast
2:56 PM 79.0 °F - 68.0 °F 69% 29.94 in 10.0 mi WNW 6.9 mph - N/A   Overcast
3:20 PM 78.8 °F - 68.0 °F 69% 30.00 in 10.0 mi West 9.2 mph - N/A   Overcast
3:45 PM 78.8 °F - 68.0 °F 69% 30.00 in 10.0 mi NW 5.8 mph - N/A   Overcast
3:56 PM 77.9 °F - 68.0 °F 71% 29.94 in 10.0 mi WNW 4.6 mph - N/A   Overcast
4:56 PM 78.8 °F - 69.8 °F 74% 30.00 in 10.0 mi NE 12.7 mph 16.1 mph N/A   Overcast
5:17 PM 77.0 °F - 69.8 °F 78% 30.00 in 10.0 mi NNE 12.7 mph - N/A   Overcast
5:43 PM 75.2 °F - 69.8 °F 83% 30.00 in 10.0 mi NE 15.0 mph - N/A   Overcast
5:56 PM 75.9 °F - 68.9 °F 79% 29.94 in 10.0 mi NE 16.1 mph - N/A   Mostly Cloudy
6:56 PM 72.9 °F - 66.9 °F 82% 29.96 in 10.0 mi ENE 16.1 mph - N/A   Partly Cloudy
7:56 PM 72.9 °F - 68.0 °F 85% 29.96 in 10.0 mi NNE 16.1 mph - N/A   Clear
8:56 PM 72.0 °F - 68.9 °F 90% 29.98 in 10.0 mi ENE 10.4 mph - N/A   Clear
9:56 PM 70.9 °F - 68.0 °F 91% 30.00 in 10.0 mi East 8.1 mph - N/A   Clear
10:56 PM 68.9 °F - 66.9 °F 93% 30.00 in 10.0 mi East 5.8 mph - N/A   Clear
11:56 PM 68.9 °F - 68.0 °F 97% 29.99 in 10.0 mi Calm Calm - N/A   Clear